DELTA 1 DEB, 3127

Orbit data source: Space-Track

DELTA 1 DEB, 3127 is space debris in LEO originally from a launch on Thu, 11 Jan 1968 UTC launched from the Air Force Western Test Range (AFWTR). Debris objects in space refer to the collection of defunct objects orbiting the Earth. Examples of debris include non-operational satellites, rocket bodies, and fragments generated from explosions, collisions, or faulty payload assembly.

Loading next visibility...
Identifier
3127, 1968-002D
Orbit
LEO
Country
Flag of USUS
Related business
Manufacturer
Unknown
Mission
Spacecraft
Bus & Motor
Unknown
Mass
Unknown
Launch date (UTC)
1968-01-11 (58 years ago)
Launch vehicle
Unknown
Launch site
Air Force Western Test Range (AFWTR)
Object type
Payload
Rocket body
Debris
Shape & HBR
Unknown shape, 0.1 m
Radar Cross Section
Small (<0.1 m²)

Expand to show TLE details & history
Last TLE update: 4 days ago

TLE from 4 days ago
0 DELTA 1 DEB
1  3127U 68002D   26097.60894637 -.00000047  00000-0  81454-4 0  9994
2  3127 105.3120 220.3223 0320615  63.5480 313.5604 12.84891957729907
Epoch: 2026-04-07T14:36Z
TLE epoch observation values (Epoch: 2026-04-07T14:36:52.966Z)
Latitude
13.82648°
Longitude
161.3744°
Altitude
1,157.742 km
Speed
7.353 km/s
True Right ascension
14h 25m 54s
True Declination
13° 45' 04"
Sunlit
Object was in full shadow at epoch
Visualization orbit readout
Latitude
Unknown
Longitude
Unknown
Altitude
Unknown
Speed
Unknown
Apparent Right ascension
Unknown
Apparent Declination
Unknown
Sunlit
N/A
Visualization observer readout
Local Sidereal Time
17:34:00
Azimuth
Unknown
Elevation
Unknown
Doppler factor
Unknown
Orbital elements
Apogee altitude
1,566.405 km
Perigee altitude
1,072.803 km
Semi-major axis
7,697.741 km
Eccentricity
0.03206
Inclination
105.312°
RAAN
220.3223°
Arg. of periapsis
63.548°
True anomaly
310.82358°
Mean anomaly
313.5604°
Eccentric anomaly
312.19954°
Mean motion
3.21365 °/min
Orbital period
112.02 mins
BSTAR
0.000081454
Loading maneuver chart data...
Computing Atmospheric mass density...
Loading historical data...
Loading historical data...
Loading historical data...
Loading historical data...
Loading historical data...
Loading historical data...
Loading historical data...

Documentation

Showing up to 5 results
|